Regional Weather Roundup
Issued by NWS Jackson, KY

Home | Current Version | Previous Version | Text Only | Print | Product List | Glossary On
Versions: 1 2 3 4 5 6 7 8 9 10 11 12 13 14 15 16 17 18 19 20 21 22 23 24 25 26 27 28 29 30 31 32 33 34 35 36 37 38 39 40 41 42 43 44 45 46 47 48
000
ASUS43 KJKL 271810
RWRJKL

EAST KENTUCKY HOURLY WEATHER ROUNDUP
NATIONAL WEATHER SERVICE JACKSON KY
200 PM EDT MON APR 27 2015

NOTE: "FAIR" INDICATES FEW OR NO CLOUDS BELOW 12,000 FEET WITH
NO SIGNIFICANT WEATHER AND/OR OBSTRUCTIONS TO VISIBILITY.

* THESE REPORTS ARE NOT UNDER NWS QUALITY CONTROL AND MAY NOT
  REPORT WEATHER SUCH AS PRECIPITATION AND FOG.

KYZ079-080-083-085-087-088-110-112-115-119-120-271900
...EASTERN KENTUCKY...

CITY           SKY/WX    TMP DP  RH WIND       PRES   REMARKS
JACKSON        PTSUNNY   58  30  34 MISG      29.95F
6HR MIN TEMP:  44; 6HR MAX TEMP:  60;

LONDON         MOSUNNY   61  30  31 W10       29.95F
6HR MIN TEMP:  43; 6HR MAX TEMP:  61;

SOMERSET*      MOSUNNY   59  34  38 NE7       29.97F
MONTICELLO*    MOSUNNY   62  36  38 VRB7      29.99F
6HR MIN TEMP:  40; 6HR MAX TEMP:  62;

MIDDLESBORO*   MOSUNNY   61  35  37 N13G20    29.94F
6HR MIN TEMP:  37; 6HR MAX TEMP:  61;

HARLAN APT*    MOCLDY    59  28  31 CALM      29.93F
HAZARD APT*    CLOUDY    61  30  31 NW7       29.95F
BLACK MTN*       N/A     46  30  53 VRB7        N/A
PIKEVILLE APT* PTSUNNY   57  34  41 NW13      29.94F
BIG SANDY*     CLOUDY    56  33  42 CALM      29.95F
6HR MIN TEMP:  44; 6HR MAX TEMP:  58;

MOREHEAD APT*  PTCLDY    59  34  38 NW9       29.98F
$$

KYZ035-036-041-042-044-050-067-078-099-271900
...CENTRAL KENTUCKY...

CITY           SKY/WX    TMP DP  RH WIND       PRES   REMARKS
MT STERLING*   MOSUNNY   61  36  39 NW9       29.98F
DANVILLE*      SUNNY     59  36  41 N8        30.00F
RICHMOND*      PTSUNNY   57  32  38 W6        29.98F
LEXINGTON      PTSUNNY   58  36  43 N6        29.98F
6HR MIN TEMP:  40; 6HR MAX TEMP:  61;

FRANKFORT      PTSUNNY   61  34  36 W9        29.97F
6HR MIN TEMP:  38; 6HR MAX TEMP:  61;

$$

KYZ091>093-OHZ055-061-077-WVZ005-015-034-035-042-271900
...SOUTHERN OHIO/WEST VIRGINIA...

CITY           SKY/WX    TMP DP  RH WIND       PRES   REMARKS
COVINGTON      MOSUNNY   61  36  39 N13       29.97F
COLUMBUS       CLOUDY    54  37  52 N16       29.97S
DAYTON         PTSUNNY   59  37  44 N14       29.98F
WILMINGTON     MOSUNNY   58  34  40 N9G18     29.97S
HUNTINGTON     CLOUDY    59  35  40 N10       29.94F
CHARLESTON     PTSUNNY   56  32  40 NW8G16    29.94S
PINEVILLE*     CLOUDY    55  34  45 MISG      29.98S
BECKLEY        CLOUDY    49  29  46 N17       29.91F
BLUEFIELD      CLOUDY    51  27  39 N9G21     29.90F
$$

VAZ002-007-008-TNZ017-027-036-066-071-271900
...SOUTHWEST VIRGINIA/EAST TENNESSEE...

CITY           SKY/WX    TMP DP  RH WIND       PRES   REMARKS
WISE*          PTSUNNY   54  28  37 NW7       29.94F
JONESVILLE*    PTCLDY    59  30  33 N5        29.95F
ABINGDON*      PTSUNNY   56  31  38 N8        29.90F
BRISTOL        MOSUNNY   60  32  34 N10       29.91F
KNOXVILLE      MOSUNNY   62  33  33 N8        29.92F
OAK RIDGE      SUNNY     64  34  32 MISG      29.93F
CROSSVILLE     SUNNY     59  32  36 NE10      29.95F
NASHVILLE      MOSUNNY   65  37  35 N12G17    29.99F
$$

...KEY TO REMARKS...
VSB - VISIBILITY IN MILES
WCI - WIND CHILL INDEX
HX  - HEAT INDEX

$$



USA.gov is the U.S. government's official web portal to all federal, state and local government web resources and services.